Time,TemperatureF,DewpointF,PressureIn,WindDirection,WindDirectionDegrees,WindSpeedMPH,WindSpeedGustMPH,Humidity,HourlyPrecipIn,Conditions,Clouds,dailyrainin,SoftwareType,DateUTC
2013-04-14 00:03:00,43.0,39.0,29.94,North,0,0.0,-999.0,86,-99.99,,,-99.99,,2013-04-14 04:03:00,
2013-04-14 00:13:00,43.0,39.0,29.94,North,0,0.0,-999.0,86,-99.99,,,-99.99,,2013-04-14 04:13:00,
2013-04-14 00:23:00,43.0,39.0,29.94,North,0,0.0,-999.0,86,-99.99,,,-99.99,,2013-04-14 04:23:00,
2013-04-14 00:33:00,43.0,39.0,29.94,North,0,0.0,-999.0,86,-99.99,,,-99.99,,2013-04-14 04:33:00,
2013-04-14 00:43:00,43.0,39.0,29.95,North,0,0.0,-999.0,86,-99.99,,,-99.99,,2013-04-14 04:43:00,
2013-04-14 00:52:00,43.0,39.0,29.95,North,0,0.0,-999.0,86,-99.99,,,-99.99,,2013-04-14 04:52:00,
2013-04-14 01:03:00,43.0,39.0,29.95,North,0,0.0,-999.0,86,-99.99,,,-99.99,,2013-04-14 05:03:00,
2013-04-14 01:12:00,43.0,41.0,29.95,NNE,20,3.0,-999.0,93,-99.99,,,-99.99,,2013-04-14 05:12:00,
2013-04-14 01:22:00,43.0,39.0,29.96,North,0,0.0,-999.0,86,-99.99,,,-99.99,,2013-04-14 05:22:00,
2013-04-14 01:32:00,43.0,39.0,29.96,NNE,20,5.0,-999.0,86,-99.99,,,-99.99,,2013-04-14 05:32:00,
2013-04-14 01:42:00,43.0,39.0,29.97,North,0,0.0,-999.0,86,-99.99,,,-99.99,,2013-04-14 05:42:00,
2013-04-14 01:52:00,45.0,39.0,29.97,North,10,5.0,-999.0,81,-99.99,,,-99.99,,2013-04-14 05:52:00,
2013-04-14 02:02:00,45.0,39.0,29.97,North,0,0.0,-999.0,81,-99.99,,,-99.99,,2013-04-14 06:02:00,
2013-04-14 02:12:00,45.0,39.0,29.97,ENE,60,3.0,-999.0,81,-99.99,,,-99.99,,2013-04-14 06:12:00,
2013-04-14 02:22:00,45.0,39.0,29.97,NNE,30,6.0,-999.0,81,-99.99,,,-99.99,,2013-04-14 06:22:00,
2013-04-14 02:32:00,45.0,39.0,29.97,North,360,5.0,-999.0,81,-99.99,,,-99.99,,2013-04-14 06:32:00,
2013-04-14 02:42:00,45.0,39.0,29.97,North,0,0.0,-999.0,81,-99.99,,,-99.99,,2013-04-14 06:42:00,
2013-04-14 02:52:00,43.0,39.0,29.98,North,0,0.0,-999.0,86,-99.99,,,-99.99,,2013-04-14 06:52:00,
2013-04-14 03:02:00,43.0,39.0,29.98,ENE,60,3.0,-999.0,86,-99.99,,,-99.99,,2013-04-14 07:02:00,
2013-04-14 03:12:00,43.0,39.0,29.97,East,80,3.0,-999.0,86,-99.99,,,-99.99,,2013-04-14 07:12:00,
2013-04-14 03:22:00,43.0,39.0,29.96,ENE,70,5.0,-999.0,86,-99.99,,,-99.99,,2013-04-14 07:22:00,
2013-04-14 03:33:00,43.0,37.0,29.96,ENE,60,5.0,-999.0,81,-99.99,,,-99.99,,2013-04-14 07:33:00,
2013-04-14 03:42:00,43.0,39.0,29.96,NE,50,3.0,-999.0,86,-99.99,,,-99.99,,2013-04-14 07:42:00,
2013-04-14 03:52:00,41.0,37.0,29.97,North,0,0.0,-999.0,86,-99.99,,,-99.99,,2013-04-14 07:52:00,
2013-04-14 04:03:00,41.0,37.0,29.97,North,0,0.0,-999.0,86,-99.99,,,-99.99,,2013-04-14 08:03:00,
2013-04-14 04:12:00,41.0,37.0,29.97,North,0,0.0,-999.0,86,-99.99,,,-99.99,,2013-04-14 08:12:00,
2013-04-14 04:22:00,39.0,37.0,29.97,North,0,0.0,-999.0,93,-99.99,,,-99.99,,2013-04-14 08:22:00,
2013-04-14 04:32:00,39.0,37.0,29.97,North,0,0.0,-999.0,93,-99.99,,,-99.99,,2013-04-14 08:32:00,
2013-04-14 04:42:00,39.0,37.0,29.97,North,0,0.0,-999.0,93,-99.99,,,-99.99,,2013-04-14 08:42:00,
2013-04-14 04:52:00,39.0,37.0,29.99,North,0,0.0,-999.0,93,-99.99,,,-99.99,,2013-04-14 08:52:00,
2013-04-14 05:03:00,39.0,37.0,29.98,North,0,0.0,-999.0,93,-99.99,,,-99.99,,2013-04-14 09:03:00,
2013-04-14 05:12:00,39.0,37.0,29.98,North,0,0.0,-999.0,93,-99.99,,,-99.99,,2013-04-14 09:12:00,
2013-04-14 05:22:00,41.0,39.0,29.98,North,0,0.0,-999.0,93,-99.99,,,-99.99,,2013-04-14 09:22:00,
2013-04-14 05:33:00,39.0,37.0,29.97,North,0,0.0,-999.0,93,-99.99,,,-99.99,,2013-04-14 09:33:00,
2013-04-14 05:43:00,39.0,39.0,29.98,North,0,0.0,-999.0,100,-99.99,,,-99.99,,2013-04-14 09:43:00,
2013-04-14 05:53:00,39.0,39.0,29.98,North,0,0.0,-999.0,100,-99.99,,,-99.99,,2013-04-14 09:53:00,
2013-04-14 06:03:00,39.0,39.0,29.98,North,0,0.0,-999.0,100,-99.99,,,-99.99,,2013-04-14 10:03:00,
2013-04-14 06:13:00,41.0,39.0,29.99,North,0,0.0,-999.0,93,-99.99,,,-99.99,,2013-04-14 10:13:00,
2013-04-14 06:23:00,41.0,39.0,30.00,North,0,0.0,-999.0,93,-99.99,,,-99.99,,2013-04-14 10:23:00,
2013-04-14 06:33:00,41.0,39.0,30.00,North,0,0.0,-999.0,93,-99.99,,,-99.99,,2013-04-14 10:33:00,
2013-04-14 06:42:00,41.0,39.0,30.00,North,0,0.0,-999.0,93,-99.99,,,-99.99,,2013-04-14 10:42:00,
2013-04-14 06:52:00,41.0,39.0,30.01,North,0,0.0,-999.0,93,-99.99,,,-99.99,,2013-04-14 10:52:00,
2013-04-14 07:02:00,41.0,39.0,30.01,North,0,0.0,-999.0,93,-99.99,,,-99.99,,2013-04-14 11:02:00,
2013-04-14 07:13:00,41.0,39.0,30.01,North,0,0.0,-999.0,93,-99.99,,,-99.99,,2013-04-14 11:13:00,
2013-04-14 07:23:00,43.0,39.0,30.02,North,0,0.0,-999.0,86,-99.99,,,-99.99,,2013-04-14 11:23:00,
2013-04-14 07:32:00,43.0,39.0,30.02,North,0,0.0,-999.0,86,-99.99,,,-99.99,,2013-04-14 11:32:00,
2013-04-14 07:42:00,43.0,39.0,30.03,North,0,0.0,-999.0,86,-99.99,,,-99.99,,2013-04-14 11:42:00,
2013-04-14 07:52:00,43.0,39.0,30.03,North,0,0.0,-999.0,86,-99.99,,,-99.99,,2013-04-14 11:52:00,
2013-04-14 08:02:00,43.0,39.0,30.03,North,0,0.0,-999.0,86,-99.99,,,-99.99,,2013-04-14 12:02:00,
2013-04-14 08:12:00,45.0,39.0,30.04,North,360,3.0,-999.0,81,-99.99,,,-99.99,,2013-04-14 12:12:00,
2013-04-14 08:22:00,46.0,37.0,30.04,NW,320,6.0,-999.0,70,-99.99,,,-99.99,,2013-04-14 12:22:00,
2013-04-14 08:32:00,48.0,37.0,30.04,NW,320,6.0,-999.0,66,-99.99,,,-99.99,,2013-04-14 12:32:00,
2013-04-14 08:42:00,48.0,36.0,30.04,NW,320,8.0,-999.0,61,-99.99,,,-99.99,,2013-04-14 12:42:00,
2013-04-14 08:52:00,48.0,36.0,30.05,NW,320,8.0,-999.0,61,-99.99,,,-99.99,,2013-04-14 12:52:00,
2013-04-14 09:02:00,50.0,36.0,30.05,NW,310,12.0,16.0,57,-99.99,,,-99.99,,2013-04-14 13:02:00,
2013-04-14 09:12:00,50.0,34.0,30.05,NW,320,9.0,-999.0,53,-99.99,,,-99.99,,2013-04-14 13:12:00,
2013-04-14 09:22:00,50.0,34.0,30.05,WNW,300,7.0,18.0,53,-99.99,,,-99.99,,2013-04-14 13:22:00,
2013-04-14 09:33:00,50.0,34.0,30.05,WNW,300,8.0,-999.0,53,-99.99,,,-99.99,,2013-04-14 13:33:00,
2013-04-14 09:42:00,50.0,36.0,30.05,NNW,330,10.0,16.0,57,-99.99,,,-99.99,,2013-04-14 13:42:00,
2013-04-14 09:52:00,46.0,34.0,30.06,NW,310,13.0,21.0,61,-99.99,,,-99.99,,2013-04-14 13:52:00,
2013-04-14 10:02:00,46.0,34.0,30.07,NW,320,9.0,18.0,61,-99.99,,,-99.99,,2013-04-14 14:02:00,
2013-04-14 10:12:00,46.0,36.0,30.07,NNW,330,8.0,-999.0,65,-99.99,,,-99.99,,2013-04-14 14:12:00,
2013-04-14 10:22:00,48.0,37.0,30.07,North,360,7.0,-999.0,66,-99.99,,,-99.99,,2013-04-14 14:22:00,
2013-04-14 10:32:00,46.0,36.0,30.07,North,360,9.0,-999.0,65,-99.99,,,-99.99,,2013-04-14 14:32:00,
2013-04-14 10:42:00,46.0,36.0,30.07,North,10,7.0,-999.0,65,-99.99,,,-99.99,,2013-04-14 14:42:00,
2013-04-14 10:52:00,48.0,36.0,30.08,NW,310,5.0,-999.0,61,-99.99,,,-99.99,,2013-04-14 14:52:00,
2013-04-14 11:02:00,48.0,36.0,30.07,NW,320,3.0,-999.0,61,-99.99,,,-99.99,,2013-04-14 15:02:00,
2013-04-14 11:12:00,48.0,34.0,30.08,North,360,6.0,-999.0,57,-99.99,,,-99.99,,2013-04-14 15:12:00,
2013-04-14 11:22:00,48.0,34.0,30.07,NW,310,3.0,-999.0,57,-99.99,,,-99.99,,2013-04-14 15:22:00,
2013-04-14 11:33:00,48.0,34.0,30.07,NW,310,8.0,-999.0,57,-99.99,,,-99.99,,2013-04-14 15:33:00,
2013-04-14 11:43:00,48.0,34.0,30.08,WNW,290,8.0,-999.0,57,-99.99,,,-99.99,,2013-04-14 15:43:00,
2013-04-14 11:53:00,48.0,34.0,30.09,NW,310,9.0,-999.0,57,-99.99,,,-99.99,,2013-04-14 15:53:00,
2013-04-14 12:04:00,48.0,34.0,30.08,NW,310,10.0,-999.0,57,-99.99,,,-99.99,,2013-04-14 16:04:00,
2013-04-14 12:13:00,48.0,34.0,30.08,NW,310,8.0,-999.0,57,-99.99,,,-99.99,,2013-04-14 16:13:00,
2013-04-14 12:23:00,50.0,34.0,30.08,NNW,340,10.0,16.0,53,-99.99,,,-99.99,,2013-04-14 16:23:00,
2013-04-14 12:33:00,52.0,34.0,30.08,NNW,330,5.0,-999.0,50,-99.99,,,-99.99,,2013-04-14 16:33:00,
2013-04-14 12:43:00,52.0,34.0,30.09,North,350,7.0,-999.0,50,-99.99,,,-99.99,,2013-04-14 16:43:00,
2013-04-14 12:53:00,50.0,34.0,30.09,NW,320,6.0,-999.0,53,-99.99,,,-99.99,,2013-04-14 16:53:00,
2013-04-14 13:02:00,50.0,32.0,30.09,WNW,290,8.0,-999.0,49,-99.99,,,-99.99,,2013-04-14 17:02:00,
2013-04-14 13:13:00,52.0,34.0,30.09,WNW,290,12.0,16.0,50,-99.99,,,-99.99,,2013-04-14 17:13:00,
2013-04-14 13:22:00,50.0,30.0,30.10,NW,310,12.0,21.0,46,-99.99,,,-99.99,,2013-04-14 17:22:00,
2013-04-14 13:33:00,50.0,30.0,30.10,NW,310,8.0,17.0,46,-99.99,,,-99.99,,2013-04-14 17:33:00,
2013-04-14 13:42:00,52.0,30.0,30.10,WNW,290,10.0,17.0,43,-99.99,,,-99.99,,2013-04-14 17:42:00,
2013-04-14 13:52:00,52.0,32.0,30.11,NW,320,10.0,17.0,46,-99.99,,,-99.99,,2013-04-14 17:52:00,
2013-04-14 14:03:00,50.0,32.0,30.11,NNW,330,8.0,17.0,49,-99.99,,,-99.99,,2013-04-14 18:03:00,
2013-04-14 14:13:00,48.0,30.0,30.10,NNW,340,6.0,17.0,49,-99.99,,,-99.99,,2013-04-14 18:13:00,
2013-04-14 14:22:00,50.0,32.0,30.11,NNW,340,8.0,20.0,49,-99.99,,,-99.99,,2013-04-14 18:22:00,
2013-04-14 14:33:00,52.0,32.0,30.10,NNW,340,9.0,22.0,46,-99.99,,,-99.99,,2013-04-14 18:33:00,
2013-04-14 14:43:00,52.0,30.0,30.10,NNW,330,9.0,17.0,43,-99.99,,,-99.99,,2013-04-14 18:43:00,
2013-04-14 14:52:00,50.0,30.0,30.11,NW,310,9.0,17.0,46,-99.99,,,-99.99,,2013-04-14 18:52:00,
2013-04-14 15:04:00,50.0,30.0,30.12,NW,310,10.0,-999.0,46,-99.99,,,-99.99,,2013-04-14 19:04:00,
2013-04-14 15:12:00,52.0,30.0,30.12,NW,310,12.0,17.0,43,-99.99,,,-99.99,,2013-04-14 19:12:00,
2013-04-14 15:22:00,50.0,30.0,30.12,NW,320,7.0,17.0,46,-99.99,,,-99.99,,2013-04-14 19:22:00,
2013-04-14 15:32:00,52.0,30.0,30.12,NW,320,6.0,-999.0,43,-99.99,,,-99.99,,2013-04-14 19:32:00,
2013-04-14 15:42:00,52.0,30.0,30.12,NNW,340,9.0,-999.0,43,-99.99,,,-99.99,,2013-04-14 19:42:00,
2013-04-14 15:52:00,50.0,28.0,30.12,NNW,330,9.0,-999.0,43,-99.99,,,-99.99,,2013-04-14 19:52:00,
2013-04-14 16:03:00,50.0,28.0,30.12,NW,310,13.0,18.0,43,-99.99,,,-99.99,,2013-04-14 20:03:00,
2013-04-14 16:13:00,52.0,28.0,30.12,NW,320,9.0,18.0,40,-99.99,,,-99.99,,2013-04-14 20:13:00,
2013-04-14 16:22:00,52.0,30.0,30.13,North,350,9.0,17.0,43,-99.99,,,-99.99,,2013-04-14 20:22:00,
2013-04-14 16:33:00,52.0,30.0,30.13,NW,320,7.0,16.0,43,-99.99,,,-99.99,,2013-04-14 20:33:00,
2013-04-14 16:43:00,52.0,30.0,30.13,North,350,9.0,-999.0,43,-99.99,,,-99.99,,2013-04-14 20:43:00,
2013-04-14 16:52:00,50.0,28.0,30.14,NNW,340,7.0,10.0,43,-99.99,,,-99.99,,2013-04-14 20:52:00,
2013-04-14 17:02:00,50.0,28.0,30.14,North,360,8.0,-999.0,43,-99.99,,,-99.99,,2013-04-14 21:02:00,
2013-04-14 17:12:00,50.0,30.0,30.14,North,360,9.0,-999.0,46,-99.99,,,-99.99,,2013-04-14 21:12:00,
2013-04-14 17:23:00,52.0,30.0,30.15,NNW,340,7.0,-999.0,43,-99.99,,,-99.99,,2013-04-14 21:23:00,
2013-04-14 17:33:00,52.0,28.0,30.15,NW,320,9.0,-999.0,40,-99.99,,,-99.99,,2013-04-14 21:33:00,
2013-04-14 17:43:00,52.0,30.0,30.15,NNW,340,9.0,-999.0,43,-99.99,,,-99.99,,2013-04-14 21:43:00,
2013-04-14 17:53:00,50.0,28.0,30.15,North,350,8.0,-999.0,43,-99.99,,,-99.99,,2013-04-14 21:53:00,
2013-04-14 18:03:00,52.0,28.0,30.15,North,350,6.0,-999.0,40,-99.99,,,-99.99,,2013-04-14 22:03:00,
2013-04-14 18:13:00,52.0,28.0,30.15,NW,310,7.0,-999.0,40,-99.99,,,-99.99,,2013-04-14 22:13:00,
2013-04-14 18:23:00,50.0,30.0,30.16,North,10,7.0,-999.0,46,-99.99,,,-99.99,,2013-04-14 22:23:00,
2013-04-14 18:33:00,50.0,30.0,30.16,North,350,8.0,-999.0,46,-99.99,,,-99.99,,2013-04-14 22:33:00,
2013-04-14 18:44:00,50.0,28.0,30.16,North,360,7.0,-999.0,43,-99.99,,,-99.99,,2013-04-14 22:44:00,
2013-04-14 18:52:00,48.0,30.0,30.16,NNE,20,8.0,-999.0,49,-99.99,,,-99.99,,2013-04-14 22:52:00,
2013-04-14 19:02:00,48.0,30.0,30.17,North,10,10.0,-999.0,49,-99.99,,,-99.99,,2013-04-14 23:02:00,
2013-04-14 19:12:00,48.0,30.0,30.17,NNE,30,9.0,-999.0,49,-99.99,,,-99.99,,2013-04-14 23:12:00,
2013-04-14 19:22:00,48.0,30.0,30.18,NNE,30,6.0,-999.0,49,-99.99,,,-99.99,,2013-04-14 23:22:00,
2013-04-14 19:33:00,48.0,30.0,30.18,NNE,20,6.0,-999.0,49,-99.99,,,-99.99,,2013-04-14 23:33:00,
2013-04-14 19:43:00,48.0,30.0,30.18,North,10,6.0,-999.0,49,-99.99,,,-99.99,,2013-04-14 23:43:00,
2013-04-14 19:52:00,48.0,30.0,30.19,North,360,5.0,-999.0,49,-99.99,,,-99.99,,2013-04-14 23:52:00,
2013-04-14 20:02:00,48.0,28.0,30.19,North,360,3.0,-999.0,46,-99.99,,,-99.99,,2013-04-15 00:02:00,
2013-04-14 20:12:00,46.0,30.0,30.19,NNE,20,3.0,-999.0,52,-99.99,,,-99.99,,2013-04-15 00:12:00,
2013-04-14 20:23:00,46.0,30.0,30.20,North,0,0.0,-999.0,52,-99.99,,,-99.99,,2013-04-15 00:23:00,
2013-04-14 20:33:00,45.0,30.0,30.21,North,0,0.0,-999.0,56,-99.99,,,-99.99,,2013-04-15 00:33:00,
2013-04-14 20:42:00,45.0,30.0,30.21,North,0,0.0,-999.0,56,-99.99,,,-99.99,,2013-04-15 00:42:00,
2013-04-14 20:52:00,41.0,30.0,30.22,North,0,0.0,-999.0,65,-99.99,,,-99.99,,2013-04-15 00:52:00,
2013-04-14 21:02:00,41.0,30.0,30.22,North,0,0.0,-999.0,65,-99.99,,,-99.99,,2013-04-15 01:02:00,
2013-04-14 21:13:00,39.0,30.0,30.22,North,0,0.0,-999.0,69,-99.99,,,-99.99,,2013-04-15 01:13:00,
2013-04-14 21:23:00,37.0,32.0,30.23,North,0,0.0,-999.0,80,-99.99,,,-99.99,,2013-04-15 01:23:00,
2013-04-14 21:33:00,39.0,32.0,30.23,North,0,0.0,-999.0,75,-99.99,,,-99.99,,2013-04-15 01:33:00,
2013-04-14 21:42:00,37.0,32.0,30.23,North,0,0.0,-999.0,80,-99.99,,,-99.99,,2013-04-15 01:42:00,
2013-04-14 21:52:00,37.0,32.0,30.23,North,0,0.0,-999.0,80,-99.99,,,-99.99,,2013-04-15 01:52:00,
2013-04-14 22:03:00,37.0,32.0,30.23,North,0,0.0,-999.0,80,-99.99,,,-99.99,,2013-04-15 02:03:00,
2013-04-14 22:12:00,37.0,32.0,30.23,North,0,0.0,-999.0,80,-99.99,,,-99.99,,2013-04-15 02:12:00,
2013-04-14 22:22:00,37.0,32.0,30.24,North,0,0.0,-999.0,80,-99.99,,,-99.99,,2013-04-15 02:22:00,
2013-04-14 22:32:00,37.0,32.0,30.24,North,0,0.0,-999.0,80,-99.99,,,-99.99,,2013-04-15 02:32:00,
2013-04-14 22:42:00,36.0,30.0,30.24,North,0,0.0,-999.0,80,-99.99,,,-99.99,,2013-04-15 02:42:00,
2013-04-14 22:52:00,36.0,30.0,30.24,North,0,0.0,-999.0,80,-99.99,,,-99.99,,2013-04-15 02:52:00,
2013-04-14 23:03:00,36.0,32.0,30.24,North,0,0.0,-999.0,86,-99.99,,,-99.99,,2013-04-15 03:03:00,
2013-04-14 23:12:00,34.0,30.0,30.25,North,0,0.0,-999.0,86,-99.99,,,-99.99,,2013-04-15 03:12:00,
2013-04-14 23:22:00,34.0,30.0,30.25,North,0,0.0,-999.0,86,-99.99,,,-99.99,,2013-04-15 03:22:00,
2013-04-14 23:33:00,34.0,32.0,30.25,North,0,0.0,-999.0,93,-99.99,,,-99.99,,2013-04-15 03:33:00,
2013-04-14 23:43:00,34.0,30.0,30.25,North,0,0.0,-999.0,86,-99.99,,,-99.99,,2013-04-15 03:43:00,
2013-04-14 23:54:00,34.0,30.0,30.25,North,0,0.0,-999.0,86,-99.99,,,-99.99,,2013-04-15 03:54:00,